Regional Weather Roundup
Issued by NWS State College, PA

Home | Current Version | Previous Version | Text Only | Print | Product List | Glossary On
Versions: 1 2 3 4 5 6 7 8 9 10 11 12 13 14 15 16 17 18 19 20 21 22 23 24 25 26 27 28 29 30 31 32 33 34 35 36 37 38 39 40 41 42 43 44 45 46 47 48 49 50
000
ASUS41 KCTP 241403
RWRCTP

REGIONAL WEATHER ROUNDUP
NATIONAL WEATHER SERVICE STATE COLLEGE PA
1000 AM EDT TUE APR 24 2018

Note: "fair" indicates few or no clouds below 12,000 feet with no
significant weather and/or obstructions to visibility.

* = STATION THAT DOES NOT REPORT PRECIPITATION /E.G. RAIN...SNOW...ETC/
    THUNDER OR FOG.

PAZ002>004-007>009-013>016-020>023-029>032-241500-
WESTERN PENNSYLVANIA

CITY           SKY/WX    TMP DP  RH WIND       PRES   REMARKS
ERIE           CLOUDY    56  40  55 SE18G26   30.16F
MEADVILLE      FAIR      52  38  58 VRB7      30.17F
FRANKLIN*      PTSUNNY   51  37  58 SE17      30.19F
NEW CASTLE     CLOUDY    53  42  66 SE7       30.17F
BEAVER COUNTY  LGT RAIN  50  43  76 E9        30.15F
BUTLER*        LGT RAIN  50  43  77 E10       30.17F
PITTSBURGH INT LGT RAIN  49  45  86 E9        30.14F
PITTSBURGH     LGT RAIN  49  46  90 E9        30.14F
INDIANA*       CLOUDY    50  43  76 SE6G15    30.23F HAZE
LATROBE        LGT RAIN  48  46  93 N8        30.16F
WASHINGTON CO* LGT RAIN  49  46  90 E6        30.16S
$$

PAZ004>006-010>012-017>019-024>028-033>037-041-042-045-046-049>053-241500-
CENTRAL PENNSYLVANIA

CITY           SKY/WX    TMP DP  RH WIND       PRES   REMARKS
BRADFORD       CLOUDY    53  31  42 SE13G18   30.23F
DUBOIS         FAIR      51  37  58 SE16G24   30.20F
CLEARFIELD     CLOUDY    52  37  56 VRB6      30.24F
JOHNSTOWN      LGT RAIN  45  41  86 SE10G20   30.19F
ALTOONA        CLOUDY    51  38  60 SE5       30.24F
STATE COLLEGE  NOT AVBL
WILLIAMSPORT   FAIR      56  31  38 VRB5      30.30F
SELINSGROVE    PTSUNNY   55  38  52 VRB3      30.31F
FT INDIANTOWN  PTSUNNY   59  36  41 E8        30.32F
CAPITAL CITY   FAIR      59  41  51 E13       30.30F
HARRISBURG     PTSUNNY   59  41  51 SE13      30.29F
YORK           FAIR      57  43  59 SE15G24   30.28F
$$

PAZ038>040-043-044-047-048-054-055-060>062-067>071-241500-
EASTERN PENNSYLVANIA

CITY           SKY/WX    TMP DP  RH WIND       PRES   REMARKS
SCRANTON       FAIR      58  33  39 S7G20     30.33F
MOUNT POCONO   FAIR      51  26  37 SE10      30.33F
ALLENTOWN      FAIR      59  34  39 SE9       30.36F
QUAKERTOWN*    SUNNY     57  37  47 E6        30.35F
READING        FAIR      58  39  49 SE10G18   30.32F
LANCASTER      FAIR      58  43  57 SE12      30.31F
COATESVILLE      N/A     57  39  51 SE9       30.34S
POTTSTOWN      FAIR      57  38  48 VRB6      30.35F
BLUE BELL      PTSUNNY   59  41  51 SE5       30.36F
DOYLESTOWN     FAIR      56  40  55 VRB6      30.35F
WILLOW GROVE   NOT AVBL
NORTH PHILA    FAIR      62  42  47 SE10      30.37F
PHILADELPHIA   PTSUNNY   61  43  51 SE12      30.35F
$$



USA.gov is the U.S. government's official web portal to all federal, state and local government web resources and services.